Volver al catálogo

TITAN 3C TRANSTAGE DEB

ActivoHEO
NORAD 26782·DEBRIS·🇺🇸 United States

Lanzado Dec 21, 1965 desde Cape Canaveral Space Force Station

Loading…

Próximos Pases (próximas 24 horas)

TLE

ActualizadoSource: Space-Track

Época: Sep 13, 2026, 00:56 UTC

1 26782U 65108BA  26256.03894032  .00032917 -20181-5  12980-2 0  9997
2 26782  26.4416  51.5217 2739578 266.0929  62.5904  9.88895361421815

Sigue TITAN 3C TRANSTAGE DEB en tiempo real con AllMySat

Download on the App Store